Weather History for KPKB - November, 2013

Change the Weather History Date:

Thursday, November 21, 2013

  Actual Average Record
Temperature  
Mean Temperature 44 °F 43 °F  
Max Temperature 56 °F 53 °F 77 °F (1906)
Min Temperature 32 °F 34 °F 17 °F (1964)
Degree Days  
Heating Degree Days 21 22  
Month to date heating degree days 417 380  
Cooling Degree Days 0 0  
Month to date cooling degree days 0 0  
Year to date cooling degree days 955 953  
Moisture  
Dew Point 33 °F    
Average Humidity 60    
Maximum Humidity 76    
Minimum Humidity 43    
Precipitation  
Precipitation T in 0.12 in 0.59 in (2002)
Month to date precipitation 2.46 2.33  
Year to date precipitation 38.40 37.06  
Sea Level Pressure  
Sea Level Pressure 30.35 in    
Wind  
Wind Speed 2 mph (SE)    
Max Wind Speed 10 mph    
Max Gust Speed 14 mph    
Visibility 10 miles    
Events Rain    
T = Trace of Precipitation, MM = Missing Value Source: NWS Daily Summary

Daily Weather History Graph

Daily Weather History Graph

Search for Another Location

Airport or City:

Trip Planner

Search our weather history database for the weather conditions in past years. The results will help you decide how hot, cold, wet, or windy it might be!

Date:

Astronomy

Nov. 21, 2013 Rise Set
Actual Time 7:16 AM EST 5:06 PM EST
Civil Twilight 6:47 AM EST 5:35 PM EST
Nautical Twilight 6:14 AM EST 6:08 PM EST
Astronomical Twilight 5:42 AM EST 6:40 PM EST
Moon 8:42 PM EST (11/21) 10:21 AM EST (11/21)
Length of Visible Light 10h 48m
Length of Day
9h 50m
Waning Gibbous, 85% of the Moon is Illuminated
Nov 21
Waning Gibbous
Nov 25
Last Quarter
Dec 2
New
Dec 9
First Quarter
Dec 17
Full

Hourly Weather History & Observations

Time (EST) Temp. Windchill Dew Point Humidity Pressure Visibility Wind Dir Wind Speed Gust Speed Precip Events Conditions
12:53 AM 42.1 °F 39.2 °F 21.9 °F 45% 30.37 in 10.0 mi SSE 4.6 mph - N/A   Clear
1:53 AM 41.0 °F 39.0 °F 21.9 °F 47% 30.38 in 10.0 mi ESE 3.5 mph - N/A   Clear
2:53 AM 37.9 °F 34.4 °F 23.0 °F 55% 30.38 in 10.0 mi ESE 4.6 mph - N/A   Clear
3:53 AM 37.0 °F 34.5 °F 24.1 °F 59% 30.39 in 10.0 mi East 3.5 mph - N/A   Clear
4:53 AM 35.1 °F 31.0 °F 26.1 °F 70% 30.38 in 10.0 mi East 4.6 mph - N/A   Scattered Clouds
5:53 AM 34.0 °F - 26.1 °F 73% 30.42 in 10.0 mi Calm Calm - N/A   Mostly Cloudy
6:53 AM 34.0 °F - 27.0 °F 75% 30.43 in 10.0 mi Calm Calm - N/A   Partly Cloudy
7:53 AM 36.0 °F - 28.9 °F 76% 30.42 in 10.0 mi Calm Calm - N/A   Overcast
8:53 AM 37.9 °F - 30.0 °F 73% 30.42 in 10.0 mi Calm Calm - N/A   Clear
9:53 AM 43.0 °F - 30.9 °F 62% 30.42 in 10.0 mi Calm Calm - N/A   Clear
10:53 AM 48.9 °F - 32.0 °F 52% 30.42 in 10.0 mi South 3.5 mph - N/A   Scattered Clouds
11:53 AM 53.1 °F - 34.0 °F 48% 30.39 in 10.0 mi South 8.1 mph - N/A   Mostly Cloudy
12:53 PM 54.0 °F - 35.1 °F 49% 30.37 in 10.0 mi South 3.5 mph - N/A   Overcast
1:53 PM 54.0 °F - 36.0 °F 51% 30.34 in 10.0 mi Calm Calm - N/A   Overcast
2:53 PM 55.0 °F - 37.0 °F 51% 30.33 in 10.0 mi SSE 3.5 mph - N/A   Overcast
3:53 PM 55.9 °F - 37.9 °F 51% 30.32 in 10.0 mi SE 4.6 mph - N/A   Overcast
4:53 PM 55.0 °F - 37.9 °F 53% 30.31 in 10.0 mi SSE 3.5 mph - N/A   Overcast
5:53 PM 54.0 °F - 37.9 °F 55% 30.30 in 10.0 mi Calm Calm - N/A   Mostly Cloudy
6:53 PM 52.0 °F - 39.0 °F 61% 30.31 in 10.0 mi Calm Calm - N/A   Mostly Cloudy
7:53 PM 51.1 °F - 39.0 °F 63% 30.30 in 4.0 mi Calm Calm - N/A   Haze
8:53 PM 51.1 °F - 39.0 °F 63% 30.29 in 10.0 mi Calm Calm - N/A   Mostly Cloudy
9:53 PM 50.0 °F - 39.9 °F 68% 30.28 in 10.0 mi Calm Calm - N/A   Mostly Cloudy
10:53 PM 51.1 °F - 39.9 °F 66% 30.27 in 10.0 mi Calm Calm - 0.00 in Rain Light Rain
11:53 PM 50.0 °F - 44.1 °F 80% 30.25 in 10.0 mi Calm Calm - 0.00 in   Overcast